Weather History for New Iberia, LA

Change the Weather History Date:

Monday, March 3, 2014

  Actual Average Record
Temperature  
Mean Temperature 50 °F 59 °F  
Max Temperature 68 °F 70 °F 82 °F (1955)
Min Temperature 32 °F 49 °F 19 °F (1980)
Degree Days  
Heating Degree Days 15 7  
Month to date heating degree days 15 21  
Since 1 July heating degree days 1539 1237  
Cooling Degree Days 0 1  
Month to date cooling degree days 8 3  
Year to date cooling degree days 26 34  
Moisture  
Dew Point 39 °F    
Average Humidity 79    
Maximum Humidity 93    
Minimum Humidity 65    
Precipitation  
Precipitation 0.18 in 0.14 in 2.37 in (1979)
Month to date precipitation 0.18 0.43  
Year to date precipitation 8.52 9.84  
Sea Level Pressure  
Sea Level Pressure 30.13 in    
Wind  
Wind Speed 18 mph (North)    
Max Wind Speed 29 mph    
Max Gust Speed 37 mph    
Visibility 10 miles    
Events Rain , Snow , Thunderstorm    
T = Trace of Precipitation, MM = Missing Value Source: NWS Daily Summary

Daily Weather History Graph

Daily Weather History Graph

Search for Another Location

Airport:

Trip Planner

Search our weather history database for the weather conditions in past years. The results will help you decide how hot, cold, wet, or windy it might be!

Date:

Astronomy

Mar. 03, 2014 Rise Set
Actual Time 6:31 AM CST 6:08 PM CST
Civil Twilight 6:07 AM CST 6:32 PM CST
Nautical Twilight 5:39 AM CST 6:59 PM CST
Astronomical Twilight 5:11 AM CST 7:27 PM CST
Moon 7:53 AM CST (3/3) 8:55 PM CST (3/3)
Length of Visible Light 12h 24m
Length of Day
11h 36m
Waxing Crescent, 8% of the Moon is Illuminated
Mar 3
Waxing Crescent
Mar 8
First Quarter
Mar 16
Full
Mar 23
Last Quarter
Mar 30
New

Hourly Weather History & Observations

Time (CST) Temp. Windchill Dew Point Humidity Pressure Visibility Wind Dir Wind Speed Gust Speed Precip Events Conditions
12:11 AM 68.0 °F - 64.0 °F 87% 29.97 in 9.0 mi SSW 11.5 mph - N/A   Overcast
12:22 AM 68.0 °F - 64.9 °F 90% 29.97 in 9.0 mi WSW 12.7 mph - N/A   Overcast
12:34 AM 63.0 °F - 60.1 °F 90% 29.99 in 5.0 mi NW 19.6 mph 25.3 mph 0.02 in Rain Heavy Rain
12:41 AM 60.1 °F - 57.0 °F 90% 30.00 in 8.0 mi NNW 19.6 mph 26.5 mph 0.02 in Rain Light Rain
12:53 AM 55.0 °F - 53.1 °F 93% 30.01 in 10.0 mi NW 19.6 mph 26.5 mph 0.02 in Rain Light Rain
1:24 AM 54.0 °F - 52.0 °F 93% 30.01 in 10.0 mi NNW 9.2 mph - 0.00 in   Overcast
1:31 AM 54.0 °F - 52.0 °F 93% 30.01 in 10.0 mi NNW 9.2 mph - 0.00 in   Overcast
1:53 AM 52.0 °F - 48.9 °F 89% 30.01 in 10.0 mi NW 19.6 mph 28.8 mph 0.00 in Rain Light Rain
2:37 AM 50.0 °F - 48.0 °F 93% 30.01 in 7.0 mi NNW 16.1 mph - 0.00 in Rain , Thunderstorm Light Rain
2:53 AM 50.0 °F - 48.0 °F 93% 30.01 in 7.0 mi NW 13.8 mph - 0.02 in Rain , Thunderstorm Light Rain
3:08 AM 48.9 °F - 46.9 °F 93% 30.03 in 8.0 mi NW 16.1 mph 23.0 mph 0.00 in Rain Light Rain
3:46 AM 46.9 °F - 44.1 °F 90% 30.04 in 9.0 mi NNW 18.4 mph - 0.08 in Rain Light Rain
3:53 AM 46.0 °F 38.5 °F 43.0 °F 89% 30.05 in 4.0 mi NNW 19.6 mph - 0.13 in Rain Heavy Rain
4:07 AM 45.0 °F 37.4 °F 42.1 °F 90% 30.05 in 10.0 mi North 18.4 mph 25.3 mph 0.01 in Rain Light Rain
4:26 AM 45.0 °F 37.1 °F 41.0 °F 86% 30.08 in 10.0 mi NNW 19.6 mph 25.3 mph 0.01 in   Overcast
4:53 AM 44.1 °F 36.8 °F 39.9 °F 85% 30.07 in 10.0 mi North 16.1 mph 26.5 mph 0.01 in   Overcast
5:02 AM 44.1 °F 35.9 °F 39.9 °F 85% 30.07 in 10.0 mi North 19.6 mph 27.6 mph N/A   Overcast
5:21 AM 43.0 °F 34.8 °F 39.9 °F 89% 30.08 in 10.0 mi North 18.4 mph - N/A   Overcast
5:53 AM 43.0 °F 34.8 °F 39.9 °F 89% 30.11 in 10.0 mi North 18.4 mph - N/A   Overcast
6:46 AM 41.0 °F 31.9 °F 37.0 °F 86% 30.14 in 10.0 mi North 19.6 mph - 0.00 in   Overcast
6:53 AM 41.0 °F 31.9 °F 37.0 °F 86% 30.15 in 10.0 mi North 19.6 mph - 0.00 in   Overcast
7:04 AM 41.0 °F 32.8 °F 37.0 °F 86% 30.15 in 10.0 mi North 16.1 mph - N/A   Overcast
7:53 AM 39.9 °F 29.0 °F 36.0 °F 86% 30.17 in 10.0 mi North 26.5 mph 36.8 mph 0.00 in Rain Light Rain
8:05 AM 39.9 °F 29.7 °F 36.0 °F 86% 30.17 in 10.0 mi North 23.0 mph 32.2 mph 0.00 in Rain Light Rain
8:53 AM 39.9 °F 30.2 °F 36.0 °F 86% 30.20 in 10.0 mi North 20.7 mph 28.8 mph 0.00 in Rain Light Rain
9:53 AM 42.1 °F 32.8 °F 35.1 °F 76% 30.22 in 10.0 mi North 21.9 mph 33.4 mph 0.00 in Rain Light Rain
10:53 AM 43.0 °F 34.8 °F 36.0 °F 76% 30.22 in 10.0 mi NNE 18.4 mph - 0.00 in   Overcast
11:06 AM 43.0 °F 34.2 °F 37.0 °F 80% 30.22 in 10.0 mi North 20.7 mph 26.5 mph N/A   Overcast
11:22 AM 45.0 °F 37.6 °F 36.0 °F 71% 30.22 in 10.0 mi North 17.3 mph - N/A   Overcast
11:53 AM 45.0 °F 36.9 °F 36.0 °F 71% 30.21 in 10.0 mi North 20.7 mph - N/A   Overcast
12:53 PM 46.9 °F - 35.1 °F 63% 30.20 in 10.0 mi North 18.4 mph - N/A   Scattered Clouds
1:05 PM 46.0 °F 37.8 °F 35.1 °F 66% 30.21 in 10.0 mi NNE 23.0 mph 27.6 mph N/A   Mostly Cloudy
1:53 PM 44.1 °F 36.2 °F 33.1 °F 65% 30.21 in 10.0 mi North 18.4 mph - N/A   Overcast
2:53 PM 44.1 °F 36.5 °F 33.1 °F 65% 30.19 in 10.0 mi North 17.3 mph - N/A   Mostly Cloudy
3:53 PM 42.1 °F 33.6 °F 32.0 °F 67% 30.20 in 10.0 mi North 18.4 mph - N/A   Mostly Cloudy
4:05 PM 43.0 °F 36.0 °F 32.0 °F 65% 30.20 in 10.0 mi North 13.8 mph - N/A   Scattered Clouds
4:53 PM 39.9 °F 30.5 °F 30.0 °F 68% 30.20 in 10.0 mi North 19.6 mph - N/A   Clear
5:53 PM 37.0 °F 27.4 °F 28.0 °F 70% 30.21 in 10.0 mi North 17.3 mph 28.8 mph N/A   Clear
6:53 PM 35.1 °F 25.2 °F 27.0 °F 72% 30.20 in 10.0 mi North 16.1 mph - N/A   Clear
7:53 PM 33.1 °F 23.4 °F 27.0 °F 78% 30.23 in 10.0 mi North 13.8 mph - N/A   Mostly Cloudy
8:15 PM 33.1 °F 20.3 °F 26.1 °F 75% 30.23 in 10.0 mi North 24.2 mph 27.6 mph 0.00 in Snow Light Snow
8:50 PM 33.8 °F 24.8 °F 26.6 °F 75% 30.24 in 10.0 mi North 12.7 mph - 0.00 in   Mostly Cloudy
8:53 PM 34.0 °F 24.6 °F 27.0 °F 75% 30.24 in 10.0 mi NNE 13.8 mph - 0.00 in   Mostly Cloudy
9:53 PM 33.1 °F 23.0 °F 26.1 °F 75% 30.24 in 10.0 mi North 15.0 mph - N/A   Overcast
10:53 PM 33.1 °F 23.9 °F 26.1 °F 75% 30.24 in 10.0 mi North 12.7 mph - N/A   Overcast
11:53 PM 33.1 °F 23.4 °F 26.1 °F 75% 30.19 in 10.0 mi NNE 13.8 mph - N/A   Overcast